Location: Tierra Monte Subdivision
(35.2092°N, 106.4864°W)
Time: 22:54:36
(UTC+00:00)

Cosmos 1674 - Pass Details

Date: 30 March 2020
Orbit: 495 x 517 km, 82.5° (Epoch: 05 June)

Event Time Altitude Azimuth Distance (km) Brightness Sun altitude
Rises 02:19:33 0° 350° (N) 2,606 6.6 -11.7°
Reaches altitude 10° 02:21:41 10° 347° (NNW) 1,714 5.7 -12.1°
Maximum altitude 02:25:25 66° 265° (W) 547 3.0 -12.9°
Drops below altitude 10° 02:29:05 10° 183° (S) 1,691 5.2 -13.6°
Sets 02:31:11 0° 180° (S) 2,567 6.1 -14.0°
